Location: ????????
(41.2031°N, 22.5756°E)
Time: 05:54:48
(UTC+00:00)

Cosmos 1461 - Pass Details

Date: 01 December 2020
Orbit: 501 x 664 km, 65.0° (Epoch: 20 January)

Event Time Altitude Azimuth Distance (km) Brightness Sun altitude
Rises 16:19:12 0° 178° (S) 2,855 6.7 -14.3°
Reaches altitude 10° 16:21:45 10° 164° (SSE) 1,984 5.7 -14.7°
Maximum altitude 16:25:20 24° 111° (ESE) 1,336 4.3 -15.4°
Enters shadow 16:25:51 23° 100° (E) 1,358 4.3 -15.5°
